Aérodrome :
LOGIN :

S'inscrire | Disclaimer

   EN    FR    IT 

 










Légende :    VFR   VFR Marginal   IFR   IFR Intensif   IFR Très Intensif
Visi : 
Plafond : 
>= 8 km
>= 3000ft
5 à 8 km
1000 à 3000 ft
1500m à 5 km
500 à 1000 ft
800 à 1500m
200 à 500 ft
< 800m
< 200 ft
Symboles :   Orages  Brouillard  Fortes neiges  Fortes précipitations  Vent > 20 kt
SIGMETs :   Divers  Orages  Givrage  Turbulence  Onde Orograph.  Cendres Volcan.






- Altitude de l'aérodrome : 290 ft
- Code IATA : OSI


LDOS - Osijek

DERNIER METAR :
  • 031630Z 09012KT CAVOK 31/18 Q1004

METARs EXPIRÉS :
  • 031600Z 09012KT CAVOK 31/17 Q1004
  • 031530Z 09010KT CAVOK 31/17 Q1005
  • 031500Z 09010KT CAVOK 31/17 Q1005
  • 031430Z 10010KT CAVOK 30/17 Q1005
  • 031400Z 10007KT CAVOK 30/18 Q1006

TAF TAF LDOS
Valide du 03 à 12h jusqu'au 04 à 12h UTC


031125Z 0312/0412 10008KT CAVOK TX31/0313Z TN21/0403Z
BECMG 0407/0409 33009KT
PROB30
TEMPO 0407/0412 31018G30KT TSRA FEW040CB SCT050



MET'MAP, la Météo Aéronautique d'un coup d'oeil ! - Copyright ORBIFLY Décembre 2007 - Disclaimer

ORBIFLY MET'MAP TEAM :

Programmation & Développement : Alexandra Zaïnal
Sur une idée originale de : Baudouin d'Aumeries
Assistance à la programmation : Marc-Olivier Méhu
Soutien technique & logistique : Manuel Goepfert

Contact : metmap@orbifly.com




SOURCES & CREDITS :

   NOAA